Find Starlink 3826

NORAD ID: 52347 Int'l Des: 2022-045 Owner: SPXS Country: US Constellation: starlink operational
LEOCIRCULAR

实时位置

正在加载3D地球...

关于 Starlink 3826

正在加载描述...

即将过境

Passes for default location (London). Set your location on the main map for personalized predictions.

高度历史

Loading altitude history...

两行轨道根数

1 52347U 22045S 26118.99553933 .00000640 00000-0 58293-4 0 9999
2 52347 53.2183 333.2959 0001403 93.2569 266.8584 15.08840020223375
Epoch: Apr 28, 2026 • Age: 12 hours

当前状态

高度 539.6 km
速度 7.60 km/s
星下点 16.12°N, 105.34°E
发射日期 Apr 29, 2022
运行时间 3.9 years
类型 internet

技术详情

分类 Payload
质量 297.00 kg
干质量 275.00 kg
总质量 297.00 kg
长度 0.20 m
直径 2.80 m
跨度 9.00 m
形状 Box + pan
制造商 SPXS
平台类型 Starlink
阶段状态 In Orbit
所有者/国家 SPXS/US

Most Searched